Time,TemperatureF,DewpointF,PressureIn,WindDirection,WindDirectionDegrees,WindSpeedMPH,WindSpeedGustMPH,Humidity,HourlyPrecipIn,Conditions,Clouds,dailyrainin,SolarRadiationWatts/m^2,SoftwareType,DateUTC
2013-04-15 00:03:00,69.0,60.0,-100.00,NNW,329,8.0,-999.0,72,0.00,,,-99.99,0.000000,,2013-04-15 04:03:00,
2013-04-15 00:13:00,69.0,60.0,-100.00,NNW,330,9.0,-999.0,72,0.00,,,-99.99,0.000000,,2013-04-15 04:13:00,
2013-04-15 00:23:00,69.0,60.0,-100.00,NNW,330,9.0,-999.0,72,0.00,,,-99.99,0.000000,,2013-04-15 04:23:00,
2013-04-15 00:33:00,69.0,60.0,-100.00,NNW,329,9.0,-999.0,72,0.00,,,-99.99,0.000000,,2013-04-15 04:33:00,
2013-04-15 00:43:00,69.0,59.0,-100.00,NNW,346,9.0,-999.0,72,0.00,,,-99.99,0.000000,,2013-04-15 04:43:00,
2013-04-15 00:53:00,69.0,59.0,-100.00,NNW,346,9.0,-999.0,72,0.00,,,-99.99,0.000000,,2013-04-15 04:53:00,
2013-04-15 01:03:00,68.0,59.0,-100.00,NNW,338,4.0,-999.0,74,0.00,,,-99.99,0.000000,,2013-04-15 05:03:00,
2013-04-15 01:12:00,67.0,60.0,-100.00,NNW,336,4.0,-999.0,75,0.00,,,-99.99,0.000000,,2013-04-15 05:12:00,
2013-04-15 01:23:00,67.0,60.0,-100.00,NNW,336,4.0,-999.0,75,0.00,,,-99.99,0.000000,,2013-04-15 05:23:00,
2013-04-15 01:33:00,68.0,60.0,-100.00,North,0,5.0,-999.0,75,0.00,,,-99.99,0.000000,,2013-04-15 05:33:00,
2013-04-15 01:42:00,67.0,60.0,-100.00,NNE,16,5.0,-999.0,77,0.00,,,-99.99,0.000000,,2013-04-15 05:42:00,
2013-04-15 01:53:00,67.0,60.0,-100.00,NNE,16,5.0,-999.0,77,0.00,,,-99.99,0.000000,,2013-04-15 05:53:00,
2013-04-15 02:02:00,67.0,60.0,-100.00,NNE,28,4.0,-999.0,77,0.00,,,-99.99,0.000000,,2013-04-15 06:02:00,
2013-04-15 02:12:00,67.0,60.0,-100.00,ESE,123,3.0,-999.0,78,0.00,,,-99.99,0.000000,,2013-04-15 06:12:00,
2013-04-15 02:23:00,67.0,60.0,-100.00,ESE,123,3.0,-999.0,78,0.00,,,-99.99,0.000000,,2013-04-15 06:23:00,
2013-04-15 02:33:00,65.0,60.0,-100.00,SSW,192,2.0,-999.0,82,0.00,,,-99.99,0.000000,,2013-04-15 06:33:00,
2013-04-15 02:42:00,64.0,60.0,-100.00,SW,226,3.0,-999.0,86,0.00,,,-99.99,0.000000,,2013-04-15 06:42:00,
2013-04-15 02:52:00,64.0,60.0,-100.00,SW,226,3.0,-999.0,86,0.00,,,-99.99,0.000000,,2013-04-15 06:52:00,
2013-04-15 03:03:00,64.0,60.0,-100.00,SW,236,3.0,-999.0,87,0.00,,,-99.99,0.000000,,2013-04-15 07:03:00,
2013-04-15 03:41:00,64.0,61.0,-100.00,WSW,243,3.0,-999.0,88,0.00,,,-99.99,0.000000,,2013-04-15 07:41:00,
2013-04-15 03:42:00,64.0,61.0,-100.00,WSW,243,3.0,-999.0,88,0.00,,,-99.99,0.000000,,2013-04-15 07:42:00,
2013-04-15 03:54:00,66.0,62.0,-100.00,ESE,117,3.0,-999.0,85,0.00,,,-99.99,0.000000,,2013-04-15 07:54:00,
2013-04-15 04:02:00,67.0,62.0,-100.00,SSE,164,6.0,-999.0,86,0.00,,,-99.99,0.000000,,2013-04-15 08:02:00,
2013-04-15 04:13:00,66.0,62.0,-100.00,SSE,158,6.0,-999.0,84,0.00,,,-99.99,0.000000,,2013-04-15 08:13:00,
2013-04-15 04:22:00,66.0,62.0,-100.00,SSE,158,6.0,-999.0,84,0.00,,,-99.99,0.000000,,2013-04-15 08:22:00,
2013-04-15 04:33:00,66.0,62.0,-100.00,SSE,158,6.0,-999.0,84,0.00,,,-99.99,0.000000,,2013-04-15 08:33:00,
2013-04-15 04:42:00,66.0,61.0,-100.00,SSE,162,5.0,-999.0,85,0.00,,,-99.99,0.000000,,2013-04-15 08:42:00,
2013-04-15 04:52:00,66.0,61.0,-100.00,SSE,162,5.0,-999.0,85,0.00,,,-99.99,0.000000,,2013-04-15 08:52:00,
2013-04-15 05:03:00,66.0,61.0,-100.00,South,169,4.0,-999.0,86,0.00,,,-99.99,0.000000,,2013-04-15 09:03:00,
2013-04-15 05:12:00,65.0,61.0,-100.00,South,181,2.0,-999.0,87,0.00,,,-99.99,0.000000,,2013-04-15 09:12:00,
2013-04-15 05:23:00,65.0,61.0,-100.00,South,181,2.0,-999.0,87,0.00,,,-99.99,0.000000,,2013-04-15 09:23:00,
2013-04-15 05:33:00,64.0,61.0,-100.00,South,187,4.0,-999.0,89,0.00,,,-99.99,0.000000,,2013-04-15 09:33:00,
2013-04-15 05:43:00,64.0,61.0,-100.00,South,186,4.0,-999.0,90,0.00,,,-99.99,0.000000,,2013-04-15 09:43:00,
2013-04-15 05:53:00,64.0,61.0,-100.00,South,186,4.0,-999.0,90,0.00,,,-99.99,0.000000,,2013-04-15 09:53:00,
2013-04-15 06:02:00,64.0,62.0,-100.00,South,190,5.0,-999.0,91,0.00,,,-99.99,0.000000,,2013-04-15 10:02:00,
2013-04-15 06:13:00,64.0,62.0,-100.00,South,190,5.0,-999.0,91,0.00,,,-99.99,0.000000,,2013-04-15 10:13:00,
2013-04-15 06:23:00,64.0,62.0,-100.00,SSW,197,5.0,-999.0,92,0.00,,,-99.99,0.000000,,2013-04-15 10:23:00,
2013-04-15 06:33:00,65.0,63.0,-100.00,SSW,197,6.0,-999.0,92,0.00,,,-99.99,0.000000,,2013-04-15 10:33:00,
2013-04-15 06:42:00,65.0,63.0,-100.00,SSW,197,6.0,-999.0,92,0.00,,,-99.99,0.000000,,2013-04-15 10:42:00,
2013-04-15 06:53:00,65.0,63.0,-100.00,SSW,201,5.0,-999.0,91,0.00,,,-99.99,0.000000,,2013-04-15 10:53:00,
2013-04-15 07:03:00,65.0,63.0,-100.00,SSW,196,6.0,-999.0,92,0.00,,,-99.99,0.000000,,2013-04-15 11:03:00,
2013-04-15 07:12:00,66.0,63.0,-100.00,SSW,201,7.0,-999.0,91,0.00,,,-99.99,1.100000,,2013-04-15 11:12:00,
2013-04-15 07:23:00,66.0,63.0,-100.00,SSW,201,7.0,-999.0,91,0.00,,,-99.99,1.100000,,2013-04-15 11:23:00,
2013-04-15 07:32:00,66.0,63.0,-100.00,SSW,200,7.0,-999.0,90,0.00,,,-99.99,14.000000,,2013-04-15 11:32:00,
2013-04-15 07:43:00,66.0,63.0,-100.00,SSW,193,7.0,-999.0,90,0.00,,,-99.99,50.799999,,2013-04-15 11:43:00,
2013-04-15 07:54:00,66.0,63.0,-100.00,SSW,193,7.0,-999.0,90,0.00,,,-99.99,50.799999,,2013-04-15 11:54:00,
2013-04-15 08:04:00,67.0,64.0,-100.00,SSW,192,7.0,-999.0,88,0.00,,,-99.99,96.000000,,2013-04-15 12:04:00,
2013-04-15 08:14:00,68.0,64.0,-100.00,SSW,199,7.0,-999.0,88,0.00,,,-99.99,77.699997,,2013-04-15 12:14:00,
2013-04-15 08:23:00,68.0,64.0,-100.00,SSW,199,7.0,-999.0,88,0.00,,,-99.99,77.699997,,2013-04-15 12:23:00,
2013-04-15 08:33:00,68.0,64.0,-100.00,SSW,196,6.0,-999.0,85,0.00,,,-99.99,64.800003,,2013-04-15 12:33:00,
2013-04-15 08:43:00,69.0,63.0,-100.00,SSW,195,6.0,-999.0,84,0.00,,,-99.99,68.400002,,2013-04-15 12:43:00,
2013-04-15 08:53:00,69.0,63.0,-100.00,SSW,195,6.0,-999.0,84,0.00,,,-99.99,68.400002,,2013-04-15 12:53:00,
2013-04-15 09:04:00,69.0,63.0,-100.00,SSW,195,5.0,-999.0,81,0.00,,,-99.99,100.900002,,2013-04-15 13:04:00,
2013-04-15 09:13:00,70.0,64.0,-100.00,South,190,4.0,-999.0,81,0.00,,,-99.99,102.099998,,2013-04-15 13:13:00,
2013-04-15 09:23:00,70.0,64.0,-100.00,South,190,4.0,-999.0,81,0.00,,,-99.99,102.099998,,2013-04-15 13:23:00,
2013-04-15 09:33:00,70.0,64.0,-100.00,South,180,4.0,-999.0,78,0.00,,,-99.99,152.399994,,2013-04-15 13:33:00,
2013-04-15 09:43:00,72.0,64.0,-100.00,SSW,203,4.0,-999.0,75,0.00,,,-99.99,190.899994,,2013-04-15 13:43:00,
2013-04-15 09:54:00,72.0,64.0,-100.00,SSW,203,4.0,-999.0,75,0.00,,,-99.99,190.899994,,2013-04-15 13:54:00,
2013-04-15 10:05:00,73.0,64.0,-100.00,SSW,207,4.0,-999.0,73,0.00,,,-99.99,191.500000,,2013-04-15 14:05:00,
2013-04-15 10:13:00,73.0,64.0,-100.00,SSW,203,4.0,-999.0,73,0.00,,,-99.99,180.600006,,2013-04-15 14:13:00,
2013-04-15 10:22:00,73.0,64.0,-100.00,SSW,203,4.0,-999.0,73,0.00,,,-99.99,180.600006,,2013-04-15 14:22:00,
2013-04-15 10:33:00,74.0,65.0,-100.00,South,185,3.0,-999.0,73,0.00,,,-99.99,202.000000,,2013-04-15 14:33:00,
2013-04-15 10:44:00,74.0,65.0,-100.00,South,185,3.0,-999.0,73,0.00,,,-99.99,202.000000,,2013-04-15 14:44:00,
2013-04-15 10:55:00,75.0,65.0,-100.00,SE,146,2.0,-999.0,70,0.00,,,-99.99,227.800003,,2013-04-15 14:55:00,
2013-04-15 11:03:00,76.0,64.0,-100.00,SE,146,4.0,-999.0,66,0.00,,,-99.99,270.899994,,2013-04-15 15:03:00,
2013-04-15 11:13:00,77.0,66.0,-100.00,East,91,4.0,-999.0,67,0.00,,,-99.99,480.899994,,2013-04-15 15:13:00,
2013-04-15 11:24:00,77.0,66.0,-100.00,East,91,4.0,-999.0,67,0.00,,,-99.99,480.899994,,2013-04-15 15:24:00,
2013-04-15 11:35:00,79.0,67.0,-100.00,ENE,73,3.0,-999.0,65,0.00,,,-99.99,705.000000,,2013-04-15 15:35:00,
2013-04-15 11:44:00,81.0,67.0,-100.00,ESE,112,4.0,-999.0,64,0.00,,,-99.99,737.000000,,2013-04-15 15:44:00,
2013-04-15 11:55:00,81.0,67.0,-100.00,ESE,112,4.0,-999.0,64,0.00,,,-99.99,737.000000,,2013-04-15 15:55:00,
2013-04-15 12:14:00,81.0,68.0,-100.00,NNE,19,7.0,-999.0,63,0.00,,,-99.99,804.000000,,2013-04-15 16:14:00,
2013-04-15 12:24:00,81.0,68.0,-100.00,NNE,19,7.0,-999.0,63,0.00,,,-99.99,804.000000,,2013-04-15 16:24:00,
2013-04-15 12:33:00,83.0,68.0,-100.00,NNE,27,6.0,-999.0,60,0.00,,,-99.99,905.000000,,2013-04-15 16:33:00,
2013-04-15 12:44:00,82.0,68.0,-100.00,NNE,26,6.0,-999.0,61,0.00,,,-99.99,503.399994,,2013-04-15 16:44:00,
2013-04-15 12:54:00,82.0,68.0,-100.00,NNE,26,6.0,-999.0,61,0.00,,,-99.99,503.399994,,2013-04-15 16:54:00,
2013-04-15 13:04:00,83.0,68.0,-100.00,NNE,33,3.0,-999.0,60,0.00,,,-99.99,631.700012,,2013-04-15 17:04:00,
2013-04-15 13:15:00,84.0,68.0,-100.00,SSE,166,4.0,-999.0,58,0.00,,,-99.99,886.000000,,2013-04-15 17:15:00,
2013-04-15 13:22:00,84.0,68.0,-100.00,SSE,166,4.0,-999.0,58,0.00,,,-99.99,886.000000,,2013-04-15 17:22:00,
2013-04-15 13:33:00,84.0,68.0,-100.00,ENE,57,3.0,-999.0,59,0.00,,,-99.99,610.799988,,2013-04-15 17:33:00,
2013-04-15 13:43:00,85.0,69.0,-100.00,ESE,104,3.0,-999.0,57,0.00,,,-99.99,884.000000,,2013-04-15 17:43:00,
2013-04-15 13:53:00,85.0,69.0,-100.00,ESE,104,3.0,-999.0,57,0.00,,,-99.99,884.000000,,2013-04-15 17:53:00,
2013-04-15 14:03:00,86.0,69.0,-100.00,NE,34,5.0,-999.0,56,0.00,,,-99.99,864.000000,,2013-04-15 18:03:00,
2013-04-15 14:13:00,87.0,68.0,-100.00,ENE,58,3.0,-999.0,54,0.00,,,-99.99,871.000000,,2013-04-15 18:13:00,
2013-04-15 14:24:00,87.0,68.0,-100.00,ENE,58,3.0,-999.0,54,0.00,,,-99.99,871.000000,,2013-04-15 18:24:00,
2013-04-15 14:33:00,88.0,68.0,-100.00,NE,48,4.0,-999.0,52,0.00,,,-99.99,840.000000,,2013-04-15 18:33:00,
2013-04-15 14:42:00,87.0,68.0,-100.00,NNE,33,5.0,-999.0,53,0.00,,,-99.99,638.000000,,2013-04-15 18:42:00,
2013-04-15 14:52:00,87.0,68.0,-100.00,NNE,33,5.0,-999.0,53,0.00,,,-99.99,638.000000,,2013-04-15 18:52:00,
2013-04-15 15:02:00,89.0,68.0,-100.00,NE,35,6.0,-999.0,51,0.00,,,-99.99,903.000000,,2013-04-15 19:02:00,
2013-04-15 15:12:00,90.0,68.0,-100.00,NNW,346,6.0,-999.0,48,0.00,,,-99.99,911.000000,,2013-04-15 19:12:00,
2013-04-15 15:22:00,90.0,68.0,-100.00,NNW,346,6.0,-999.0,48,0.00,,,-99.99,911.000000,,2013-04-15 19:22:00,
2013-04-15 15:38:00,89.0,68.0,-100.00,NNE,20,5.0,-999.0,49,0.00,,,-99.99,565.700012,,2013-04-15 19:38:00,
2013-04-15 15:55:00,89.0,68.0,-100.00,NNE,18,6.0,-999.0,49,0.00,,,-99.99,655.400024,,2013-04-15 19:55:00,
2013-04-15 16:01:00,89.0,68.0,-100.00,NNE,18,6.0,-999.0,49,0.00,,,-99.99,655.400024,,2013-04-15 20:01:00,
2013-04-15 16:02:00,88.0,69.0,-100.00,NE,36,9.0,-999.0,52,0.00,,,-99.99,545.799988,,2013-04-15 20:02:00,
2013-04-15 16:12:00,88.0,69.0,-100.00,NE,47,10.0,-999.0,52,0.00,,,-99.99,650.500000,,2013-04-15 20:12:00,
2013-04-15 16:22:00,88.0,69.0,-100.00,NE,47,10.0,-999.0,52,0.00,,,-99.99,650.500000,,2013-04-15 20:22:00,
2013-04-15 16:32:00,87.0,68.0,-100.00,NE,45,9.0,-999.0,53,0.00,,,-99.99,412.500000,,2013-04-15 20:32:00,
2013-04-15 16:42:00,87.0,68.0,-100.00,NNE,33,8.0,-999.0,53,0.00,,,-99.99,262.500000,,2013-04-15 20:42:00,
2013-04-15 16:52:00,87.0,68.0,-100.00,NNE,33,8.0,-999.0,53,0.00,,,-99.99,262.500000,,2013-04-15 20:52:00,
2013-04-15 17:02:00,87.0,67.0,-100.00,NNE,22,8.0,-999.0,52,0.00,,,-99.99,338.799988,,2013-04-15 21:02:00,
2013-04-15 17:12:00,88.0,67.0,-100.00,North,358,7.0,-999.0,50,0.00,,,-99.99,328.600006,,2013-04-15 21:12:00,
2013-04-15 17:22:00,88.0,67.0,-100.00,North,358,7.0,-999.0,50,0.00,,,-99.99,328.600006,,2013-04-15 21:22:00,
2013-04-15 17:33:00,88.0,67.0,-100.00,NNE,15,7.0,-999.0,49,0.00,,,-99.99,307.100006,,2013-04-15 21:33:00,
2013-04-15 17:43:00,87.0,67.0,-100.00,NE,41,7.0,-999.0,51,0.00,,,-99.99,201.100006,,2013-04-15 21:43:00,
2013-04-15 17:53:00,87.0,67.0,-100.00,NE,41,7.0,-999.0,51,0.00,,,-99.99,201.100006,,2013-04-15 21:53:00,
2013-04-15 18:02:00,87.0,68.0,-100.00,NE,48,8.0,-999.0,54,0.00,,,-99.99,193.800003,,2013-04-15 22:02:00,
2013-04-15 18:13:00,86.0,68.0,-100.00,NE,53,9.0,-999.0,54,0.00,,,-99.99,128.399994,,2013-04-15 22:13:00,
2013-04-15 18:23:00,86.0,68.0,-100.00,NE,53,9.0,-999.0,54,0.00,,,-99.99,128.399994,,2013-04-15 22:23:00,
2013-04-15 18:33:00,86.0,68.0,-100.00,NE,54,8.0,-999.0,54,0.00,,,-99.99,191.399994,,2013-04-15 22:33:00,
2013-04-15 18:42:00,86.0,68.0,-100.00,NE,54,8.0,-999.0,54,0.00,,,-99.99,191.399994,,2013-04-15 22:42:00,
2013-04-15 18:52:00,87.0,68.0,-100.00,ENE,65,6.0,-999.0,53,0.00,,,-99.99,240.000000,,2013-04-15 22:52:00,
2013-04-15 19:02:00,86.0,67.0,-100.00,East,94,7.0,-999.0,54,0.00,,,-99.99,126.900002,,2013-04-15 23:02:00,
2013-04-15 19:12:00,86.0,67.0,-100.00,East,83,8.0,-999.0,53,0.00,,,-99.99,136.600006,,2013-04-15 23:12:00,
2013-04-15 19:22:00,86.0,67.0,-100.00,East,83,8.0,-999.0,53,0.00,,,-99.99,136.600006,,2013-04-15 23:22:00,
2013-04-15 19:32:00,85.0,66.0,-100.00,East,94,7.0,-999.0,53,0.00,,,-99.99,60.200001,,2013-04-15 23:32:00,
2013-04-15 19:42:00,82.0,71.0,-100.00,SE,141,9.0,-999.0,68,0.00,,,-99.99,15.300000,,2013-04-15 23:42:00,
2013-04-15 19:52:00,82.0,71.0,-100.00,SE,141,9.0,-999.0,68,0.00,,,-99.99,15.300000,,2013-04-15 23:52:00,
2013-04-15 20:02:00,81.0,72.0,-100.00,SE,136,9.0,-999.0,76,0.00,,,-99.99,4.400000,,2013-04-16 00:02:00,
2013-04-15 20:12:00,80.0,73.0,-100.00,SE,130,8.0,-999.0,78,0.00,,,-99.99,1.400000,,2013-04-16 00:12:00,
2013-04-15 20:22:00,80.0,73.0,-100.00,SE,130,8.0,-999.0,78,0.00,,,-99.99,1.400000,,2013-04-16 00:22:00,
2013-04-15 20:32:00,80.0,73.0,-100.00,SE,134,8.0,-999.0,79,0.00,,,-99.99,0.200000,,2013-04-16 00:32:00,
2013-04-15 20:42:00,79.0,72.0,-100.00,SE,124,10.0,-999.0,79,0.00,,,-99.99,0.000000,,2013-04-16 00:42:00,
2013-04-15 20:52:00,79.0,72.0,-100.00,SE,124,10.0,-999.0,79,0.00,,,-99.99,0.000000,,2013-04-16 00:52:00,
2013-04-15 21:02:00,79.0,73.0,-100.00,SE,136,8.0,-999.0,81,0.00,,,-99.99,0.000000,,2013-04-16 01:02:00,
2013-04-15 21:12:00,78.0,73.0,-100.00,SE,140,9.0,-999.0,84,0.00,,,-99.99,0.000000,,2013-04-16 01:12:00,
2013-04-15 21:22:00,78.0,73.0,-100.00,SE,140,9.0,-999.0,84,0.00,,,-99.99,0.000000,,2013-04-16 01:22:00,
2013-04-15 21:32:00,77.0,72.0,-100.00,SSE,150,8.0,-999.0,84,0.00,,,-99.99,0.000000,,2013-04-16 01:32:00,
2013-04-15 21:42:00,77.0,72.0,-100.00,SSE,150,8.0,-999.0,84,0.00,,,-99.99,0.000000,,2013-04-16 01:42:00,
2013-04-15 21:52:00,77.0,72.0,-100.00,SE,143,8.0,-999.0,83,0.00,,,-99.99,0.000000,,2013-04-16 01:52:00,
2013-04-15 22:02:00,77.0,71.0,-100.00,SE,143,8.0,-999.0,81,0.00,,,-99.99,0.000000,,2013-04-16 02:02:00,
2013-04-15 22:12:00,77.0,70.0,-100.00,South,169,8.0,-999.0,80,0.00,,,-99.99,0.000000,,2013-04-16 02:12:00,
2013-04-15 22:22:00,77.0,70.0,-100.00,South,169,8.0,-999.0,80,0.00,,,-99.99,0.000000,,2013-04-16 02:22:00,
2013-04-15 22:32:00,75.0,68.0,-100.00,SSW,192,9.0,-999.0,77,0.00,,,-99.99,0.000000,,2013-04-16 02:32:00,
2013-04-15 22:42:00,75.0,68.0,-100.00,SSW,192,9.0,-999.0,77,0.00,,,-99.99,0.000000,,2013-04-16 02:42:00,
2013-04-15 22:52:00,74.0,68.0,-100.00,SSW,211,7.0,-999.0,82,0.00,,,-99.99,0.000000,,2013-04-16 02:52:00,
2013-04-15 23:02:00,73.0,68.0,-100.00,SW,223,6.0,-999.0,84,0.00,,,-99.99,0.000000,,2013-04-16 03:02:00,
2013-04-15 23:12:00,73.0,68.0,-100.00,SW,223,6.0,-999.0,84,0.00,,,-99.99,0.000000,,2013-04-16 03:12:00,
2013-04-15 23:22:00,72.0,68.0,-100.00,SSW,208,4.0,-999.0,85,0.00,,,-99.99,0.000000,,2013-04-16 03:22:00,
2013-04-15 23:33:00,72.0,68.0,-100.00,SSW,204,5.0,-999.0,86,0.00,,,-99.99,0.000000,,2013-04-16 03:33:00,
2013-04-15 23:43:00,72.0,68.0,-100.00,SSW,209,4.0,-999.0,86,0.00,,,-99.99,0.000000,,2013-04-16 03:43:00,
2013-04-15 23:53:00,72.0,68.0,-100.00,SSW,209,4.0,-999.0,86,0.00,,,-99.99,0.000000,,2013-04-16 03:53:00,